Location: Eimen
(51.8766°N, 9.7806°E)
Time: 11:35:45
(UTC+00:00)

Cosmos 1980 Rocket - Pass Details

Date: 23 May 2024
Orbit: 827 x 851 km, 71.0° (Epoch: 18 June)

Event Time Altitude Azimuth Distance (km) Brightness Sun altitude
Rises 01:04:23 0° 321° (NW) 3,428 5.7 -13.8°
Reaches altitude 10° 01:07:23 10° 306° (NW) 2,488 4.8 -13.6°
Maximum altitude 01:11:31 21° 259° (W) 1,822 3.6 -13.3°
Enters shadow 01:13:51 17° 228° (SW) 2,050 3.6 -13.2°
